This demonstration page uses our WeatherBlox Daily Observations layout. Learn more.

Left ArrowRight Arrow

Hourly Observations for August 29, 2020

Temp ( °F °C ) Dew Point ( °F °C ) Humidity (%) Winds ( mph kmh ) Pressure ( in mb ) Visibility ( mi km ) Precip ( " mm )
12:54 am 00:54 Clear 73 22.8 62 16.7 69 69 N 10 17 29.92 1013 10 16.0934 0 0
1:54 am 01:54 Clear 69 20.6 61 16.1 76 76 N 12 19 29.93 1013 10 16.0934 0 0
2:54 am 02:54 Clear 67 19.4 60 15.6 79 79 N 10 17 29.93 1013 10 16.0934 0 0
3:54 am 03:54 Clear 66 18.9 58 14.4 75 75 N 9 15 29.93 1014 10 16.0934 0 0
4:54 am 04:54 Clear 65 18.3 58 14.4 78 78 N 10 17 29.95 1014 10 16.0934 0 0
5:54 am 05:54 Clear 64 17.8 56 13.3 75 75 N 8 13 29.98 1015 10 16.0934 0 0
6:54 am 06:54 Sunny 63 17.2 55 12.8 76 76 NNW 10 17 30.01 1016 9 14.48406 0 0
7:54 am 07:54 Sunny 63 17.2 54 12.2 73 73 NNW 6 9 30.03 1017 9 14.48406 0 0
8:54 am 08:54 Sunny 64 17.8 55 12.8 73 73 N 7 11 30.04 1017 9 14.48406 0 0
9:54 am 09:54 Sunny 69 20.6 56 13.3 63 63 NNE 12 19 30.03 1017 10 16.0934 0 0
10:54 am 10:54 Sunny 70 21.1 53 11.7 55 55 NE 12 19 30.02 1017 10 16.0934 0 0
11:54 am 11:54 Sunny 75 23.9 50 10 41 41 NE 14 22 30.02 1017 10 16.0934 0 0
12:54 pm 12:54 Sunny 76 24.4 50 10 40 40 NE 13 20 30.01 1016 10 16.0934 0 0
1:54 pm 13:54 Sunny 77 25 49 9.4 37 37 NNE 5 7 29.98 1015 10 16.0934 0 0
2:54 pm 14:54 Sunny 79 26.1 47 8.3 32 32 NE 10 17 29.97 1015 10 16.0934 0 0
3:54 pm 15:54 Sunny 80 26.7 47 8.3 31 31 NE 3 6 29.95 1014 10 16.0934 0 0
4:54 pm 16:54 Sunny 80 26.7 46 7.8 30 30 Calm 29.93 1014 10 16.0934 0 0
5:54 pm 17:54 Sunny 80 26.7 47 8.3 31 31 N 5 7 29.92 1013 10 16.0934 0 0
6:54 pm 18:54 Sunny 78 25.6 48 8.9 35 35 NNE 7 11 29.9 1013 10 16.0934 0 0
7:54 pm 19:54 Sunny 71 21.7 51 10.6 49 49 NE 6 9 29.9 1013 10 16.0934 0 0
8:54 pm 20:54 Clear 70 21.1 50 10 49 49 S 3 6 29.91 1013 10 16.0934 0 0
9:54 pm 21:54 Clear 69 20.6 52 11.1 55 55 Calm 29.92 1013 9 14.48406 0 0
10:54 pm 22:54 Clear 60 15.6 52 11.1 75 75 Calm 29.91 1013 10 16.0934 0 0
11:54 pm 23:54 Clear 59 15 52 11.1 78 78 NNW 3 6 29.9 1013 9 14.48406 0 0

Powered by AerisWeather